Location: Unspecified
(55.7024°N, 37.6611°E)
Time: 20:23:23
(UTC+03:00)

Tiros 1 - All Passes

Search period start: 21 May 2026 00:00
Search period end: 31 May 2026 00:00
Orbit: 618 x 649 km, 48.4° (Epoch: 20 May)

Date Brightness Start Highest point End Pass type
(mag) Time Alt. Az. Time Alt. Az. Time Alt. Az.
21 May - 01:00:14 10° WSW 01:04:24 33° S 01:08:30 10° ESE visible
21 May - 02:41:54 10° WSW 02:45:29 23° SSW 02:49:03 10° SSE visible
21 May - 22:00:15 10° SSW 22:03:23 18° SSE 22:06:30 10° ESE visible
21 May - 23:40:18 10° SW 23:44:24 31° S 23:48:27 10° ESE visible
22 May - 01:21:34 10° WSW 01:25:36 30° SSW 01:29:36 10° SE visible
22 May - 03:03:44 10° WSW 03:06:33 16° SSW 03:09:20 10° S visible
22 May - 22:20:42 10° SW 22:24:28 25° SSE 22:28:12 10° ESE visible
23 May - 00:01:27 10° WSW 00:05:36 33° S 00:09:45 10° ESE visible
23 May - 01:43:01 10° WSW 01:46:45 25° SSW 01:50:28 10° SE visible
23 May - 21:01:49 10° S 21:04:40 16° SSE 21:07:30 10° ESE daylight
23 May - 22:41:34 10° SW 22:45:37 30° SSE 22:49:39 10° ESE visible
24 May - 00:22:43 10° WSW 00:26:49 32° S 00:30:54 10° SE visible
24 May - 02:04:42 10° WSW 02:07:49 18° SSW 02:10:56 10° SSE visible
24 May - 21:22:05 10° SSW 21:25:43 23° SSE 21:29:19 10° ESE daylight
24 May - 23:02:39 10° WSW 23:06:50 33° S 23:10:59 10° ESE visible
25 May - 00:44:07 10° WSW 00:48:00 27° SSW 00:51:51 10° SE visible
25 May - 02:27:08 10° WSW 02:28:48 12° SW 02:30:28 10° SSW visible
25 May - 20:03:31 10° S 20:05:58 14° SSE 20:08:23 10° ESE daylight
25 May - 21:42:50 10° SW 21:46:50 29° SSE 21:50:49 10° ESE visible
25 May - 23:23:54 10° WSW 23:28:03 33° S 23:32:10 10° ESE visible
26 May - 01:05:43 10° WSW 01:09:07 20° SSW 01:12:28 10° SSE visible
26 May - 20:23:30 10° SSW 20:26:58 21° SSE 20:30:25 10° ESE daylight
26 May - 22:03:52 10° WSW 22:08:03 33° S 22:12:11 10° ESE visible
26 May - 23:45:15 10° WSW 23:49:15 29° SSW 23:53:11 10° SE visible
27 May - 01:27:47 10° WSW 01:30:07 14° SW 01:32:25 10° S visible
27 May - 19:05:22 10° SSE 19:07:15 12° SE 19:09:08 10° ESE daylight
27 May - 20:44:08 10° SW 20:48:05 27° SSE 20:52:00 10° ESE daylight
27 May - 22:25:04 10° WSW 22:29:15 33° S 22:33:25 10° ESE visible
28 May - 00:06:46 10° WSW 00:10:22 22° SSW 00:13:56 10° SSE visible
28 May - 19:24:59 10° SSW 19:28:14 19° SSE 19:31:28 10° ESE daylight
28 May - 21:05:06 10° SW 21:09:16 32° S 21:13:23 10° ESE daylight
28 May - 22:46:24 10° WSW 22:50:28 30° SSW 22:54:30 10° SE visible
29 May - 00:28:38 10° WSW 00:31:24 16° SSW 00:34:10 10° S visible
29 May - 18:07:40 10° SSE 18:08:33 10° SE 18:09:26 10° SE daylight
29 May - 19:45:28 10° SW 19:49:19 25° SSE 19:53:07 10° ESE daylight
29 May - 21:26:16 10° WSW 21:30:28 34° S 21:34:39 10° ESE daylight
29 May - 23:07:51 10° WSW 23:11:37 25° SSW 23:15:21 10° SSE visible
30 May - 18:26:31 10° S 18:29:30 17° SSE 18:32:28 10° ESE daylight
30 May - 20:06:21 10° SW 20:10:28 31° S 20:14:34 10° ESE daylight
30 May - 21:47:33 10° WSW 21:51:41 32° S 21:55:47 10° SE visible
30 May - 23:29:34 10° WSW 23:32:41 18° SSW 23:35:47 10° SSE visible
